CAPE
1070 1008 982 979 1040 1169 1062 1125 1155 912 1027 1459 1446 1491 1528 1311 1534 2051 1483 1204 1784 1428 1053 1215 1630 1663 1037 954 1210 1250 1220 1210 1012 971 1555 1908 2783 2756 2668 2603 1936 1606 1102
961 1062 1065 1072 1012 829 1046 940 1015 1039 1052 1463 1634 1492 1546 1552 1836 1849 1429 1155 1270 1321 1517 1309 1340 1143 1804 1643 1349 1297 1120 1303 1328 1161 1374 1736 2119 2338 2335 2577 2153 1601 1854
892 942 948 991 972 909 796 980 871 969 1049 1230 1483 1623 1413 1445 2075 2089 1557 1460 1701 1609 1627 1504 1591 1414 1404 988 1563 1098 1242 1545 1632 1647 1534 1484 1685 2023 2040 1919 1895 1978 1438
814 798 824 824 849 917 955 972 947 985 1001 1026 1283 1529 1580 1077 1412 1700 1957 1623 1610 1563 1866 1834 1551 1579 1729 1947 1806 1954 1954 1648 1345 1543 1414 1336 1385 1530 1838 1462 1120 1133 1568
599 859 811 872 884 915 953 1085 1148 1061 1041 982 900 1084 1408 1543 1110 1434 1914 1851 1884 1787 2023 2152 1826 1340 1489 1788 1821 1846 1888 1891 1379 1188 1248 1301 1275 1256 1583 997 1105 967 1232
409 495 729 999 1039 1106 1064 975 1106 1202 1227 1119 1023 777 782 778 782 920 1527 1894 1869 1867 1864 2131 2053 1616 1370 1143 914 634 1015 1756 1856 1694 1283 1199 1497 1589 1250 981 1053 824 958
0 460 505 626 1047 1167 1273 1251 1129 1020 1076 1257 1193 1026 868 767 232 323 571 857 1106 1448 1676 1677 1877 1479 1640 1730 1208 718 674 633 674 1145 1338 1282 1184 1230 1436 1669 1441 1382 1321
0 0 353 372 609 963 1145 1171 1224 1274 1199 1209 1304 1349 1236 1134 562 159 123 627 796 1000 1224 1516 1700 1438 1355 1690 1687 1425 1549 1515 1367 1081 1100 1268 1387 1406 1710 1826 1816 1857 1532
0 0 0 18 796 859 889 1124 1163 1160 1246 1202 1188 1328 1422 1342 744 372 104 277 227 684 1018 1294 1623 1708 1672 1238 1364 1164 1263 1287 1060 1228 1244 1187 1257 1183 969 961 662 464 251
0 0 0 7 1 329 719 997 976 1019 1087 1249 1269 1274 1303 1434 1233 529 166 378 345 216 365 925 1097 1186 1419 1244 1589 1234 950 683 695 589 1043 1100 990 1229 734 993 1015 482 160
0 0 0 0 0 0 72 658 786 1088 1065 1174 1278 1325 1341 1326 1312 742 291 399 428 429 354 114 84 260 483 423 828 1393 1100 640 191 432 462 456 433 895 1685 1516 1388 1176 265
0 0 0 0 0 0 1 6 544 774 1175 1302 1350 1513 1537 1502 1132 936 371 160 496 586 697 600 674 369 38 25 32 261 503 421 61 0 0 1 5 74 246 618 1601 1963 1482
0 0 0 0 0 0 0 0 0 432 698 1142 1198 1279 1489 1534 1645 1076 497 180 64 146 711 946 811 565 239 3 1 40 1 208 97 0 0 0 0 0 199 623 1217 2004 2334
0 0 0 0 0 0 0 0 0 0 158 573 954 1433 1301 1515 1621 1824 1270 428 48 8 42 141 514 670 637 754 574 35 63 258 149 94 10 1 10 0 12 212 570 675 882
0 0 0 0 0 0 0 0 0 0 9 111 573 968 1284 1310 1457 1662 1705 1914 1628 678 345 548 772 790 872 905 738 573 603 457 307 353 364 289 133 18 15 99 284 486 510
2 0 0 0 0 0 0 0 0 0 0 0 0 3 417 800 603 568 830 798 796 703 609 732 1086 1211 1196 1160 929 723 677 659 775 737 614 487 320 120 65 112 267 426 548
1 9 4 3 1 0 0 0 0 0 0 0 0 0 0 78 328 272 194 231 400 446 921 1101 1264 1294 1471 1470 1465 1277 1049 817 858 718 655 577 379 289 154 157 217 461 888
4 0 7 5 0 4 8 0 0 0 0 0 0 0 0 0 0 64 83 18 211 71 756 880 1106 1485 1616 1868 1692 1723 1545 1518 1418 1247 1097 951 759 554 430 430 460 652 776
9 3 1 6 9 6 5 8 1 0 0 0 0 0 0 0 0 0 0 140 690 760 668 853 914 1242 1622 1612 1651 1699 1796 1886 1859 1778 1729 1512 1283 1036 871 780 657 606 852
4 2 5 7 5 3 9 9 4 3 0 0 0 0 0 0 14 288 1 24 369 962 1225 1300 1271 1295 1338 1632 1917 1943 2064 2151 1847 1689 1745 1901 1676 1837 1779 1566 1436 1403 1484
1 4 2 1 8 6 7 7 6 6 4 0 0 0 0 0 11 248 877 290 357 835 1251 1570 1568 1774 1772 1748 1771 1844 1862 2014 1889 1777 1646 1601 1512 1366 1224 1324 1394 1476 1674
6 4 3 5 4 3 4 4 1 8 8 1 0 0 0 0 0 0 55 733 785 563 740 1458 1938 1848 1965 2099 2035 1772 1863 1962 1982 1766 1636 1450 1349 1239 1230 1143 1130 968 887
7 5 8 9 7 5 3 4 3 2 4 6 1 0 0 4 1 1 96 367 822 524 144 100 306 872 552 377 368 689 1348 1871 1865 1721 1474 1302 1087 1013 839 639 554 481 449
8 5 5 7 9 12 6 4 5 2 0 7 5 5 1 1 0 18 76 7 1 1 5 6 6 2 4 5 7 4 3 5 3 196 860 768 594 398 424 349 275 312 378
1 3 3 2 3 4 4 3 6 6 8 5 5 4 11 0 0 0 1 4 6 6 12 12 12 10 7 5 4 5 5 5 5 2 0 19 50 60 76 147 173 45 39
2 1 2 2 2 3 4 3 2 3 4 5 6 3 2 1 0 0 2 9 15 10 10 10 5 5 4 3 1 0 0 0 0 0 0 0 0 1 0 0 0 0 0
CIN
-35 -38 -51 -48 -47 -43 -32 -7 -2 -1 -1 -2 -8 -2 -1 -3 -1 0 0 -1 -1 -1 -1 0 -4 -3 -2 -1 -1 0 -4 -9 -24 -14 -9 -8 -29 -36 -59 -75 -99 -106 -109
-28 -39 -51 -56 -47 -44 -47 -37 -18 -6 0 0 -4 -3 -1 -1 -1 -1 -4 -1 -3 -2 -1 0 -4 -6 -12 -15 -3 -12 -14 -16 -33 -63 -51 -34 -29 -51 -73 -83 -87 -90 -102
-36 -51 -73 -67 -65 -56 -55 -47 -44 -25 -16 -2 -1 -2 -2 -1 -1 -1 -10 -5 -1 -2 0 0 -1 -3 -11 -11 -4 -10 -8 -9 -15 -25 -46 -41 -38 -48 -60 -80 -92 -85 -88
-2 -21 -48 -89 -78 -59 -61 -54 -49 -42 -31 -25 -9 -1 -2 -1 -1 -2 -2 -10 -2 -1 -1 0 -2 -2 -1 -1 -1 0 -1 -5 -28 -36 -48 -46 -44 -41 -56 -69 -71 -81 -55
-46 -16 -26 -67 -67 -70 -61 -49 -49 -41 -41 -38 -32 -18 -6 -1 -2 -1 0 -1 -1 -1 0 0 0 -13 -19 -5 -1 -2 -1 -1 -15 -30 -31 -31 -35 -34 -35 -83 -85 -94 -86
-45 -43 -43 -21 -30 -53 -75 -97 -53 -33 -45 -41 -40 -40 -34 -14 -5 -9 -7 -1 -1 -2 -2 -2 -6 -15 -35 -73 -104 -124 -63 -3 -5 -5 -25 -36 -42 -38 -48 -78 -72 -105 -92
0 -37 -42 -44 -26 -28 -33 -47 -73 -75 -50 -47 -49 -45 -47 -48 -81 -71 -58 -21 -2 -1 -2 -3 -2 -1 -14 -14 -79 -136 -162 -163 -157 -88 -65 -73 -75 -67 -48 -39 -48 -58 -57
0 0 -52 -61 -45 -15 -8 -26 -35 -33 -39 -43 -46 -57 -56 -54 -87 -177 -193 -60 -27 -8 -2 -2 -4 -7 -3 -9 -16 -11 -26 -33 -77 -116 -126 -100 -70 -61 -37 -10 -18 -29 -50
0 0 0 -14 -13 -38 -30 -10 -11 -5 -12 -31 -35 -37 -49 -84 -126 -176 -253 -136 -179 -73 -24 -11 -2 -3 -14 -37 -23 -13 -16 -25 -36 -63 -74 -83 -88 -98 -121 -90 -119 -100 -140
0 0 0 0 -37 -227 -31 -8 -4 -3 -3 -3 -13 -18 -37 -64 -116 -217 -278 -117 -140 -213 -159 -74 -60 -49 -33 -43 -28 -33 -52 -96 -73 -64 -38 -99 -140 -105 -179 -136 -100 -119 -177
0 0 0 0 0 0 -138 -2 -6 -2 -2 -1 -8 -11 -19 -53 -81 -191 -297 -196 -122 -110 -128 -206 -232 -246 -218 -222 -146 -48 -61 -77 -143 -103 -120 -135 -134 -54 -9 -48 -80 -68 -124
0 0 0 0 0 0 0 -155 -38 -2 0 -2 -3 -2 -4 -28 -83 -134 -280 -331 -198 -115 -83 -76 -75 -142 -306 -324 -355 -279 -192 -165 -265 0 0 -138 -106 -198 -102 -31 -4 -19 -37
0 0 0 0 0 0 0 0 -5 -15 0 0 -7 -2 -1 -5 -7 -93 -223 -337 -354 -284 -137 -68 -55 -102 -206 -33 -23 -406 -76 -305 -363 0 0 0 0 0 -103 -18 -2 -1 0
0 0 0 0 0 0 0 0 0 0 -11 -1 -1 0 -5 -1 -5 -2 -56 -240 -393 -61 -392 -286 -151 -113 -117 -100 -150 -48 -421 -292 -313 -317 -312 -55 -265 0 -262 -81 -32 -11 -3
0 0 0 0 0 0 0 0 0 0 -27 -46 -6 -2 -1 -2 -4 -2 -5 -2 -25 -153 -205 -141 -86 -79 -90 -105 -123 -145 -152 -214 -255 -224 -166 -161 -173 -241 -241 -101 -33 -15 -6
-3 0 0 0 0 0 0 0 0 0 0 0 0 -24 -67 -27 -84 -111 -57 -77 -80 -94 -110 -98 -44 -40 -48 -59 -82 -102 -117 -128 -109 -109 -114 -107 -118 -159 -169 -103 -43 -19 -7
-1 -1 -2 -2 -3 0 0 0 0 0 0 0 0 0 0 -316 -160 -197 -248 -183 -113 -115 -66 -37 -34 -35 -16 -13 -17 -40 -66 -86 -86 -109 -99 -119 -132 -125 -132 -116 -70 -16 0
-1 -1 -1 -2 0 -1 -1 -1 0 0 0 0 0 0 0 0 -34 -333 -336 -441 -192 -318 -81 -81 -59 -12 -3 -1 -7 -10 -24 -25 -34 -43 -57 -89 -101 -103 -92 -75 -49 -26 -11
-1 0 -1 -2 -2 -2 -1 -1 -1 0 0 0 0 0 0 0 0 0 0 -305 -96 -82 -124 -110 -114 -55 -12 -16 -20 -21 -10 -4 -6 -5 -5 -21 -37 -56 -64 -64 -50 -30 -10
0 -1 -1 -1 -1 0 -2 -1 -3 -2 0 0 0 0 0 0 -173 -118 -38 -434 -198 -81 -38 -62 -82 -71 -45 -6 -1 -2 -1 -1 -2 -9 -16 -7 -31 -19 -11 -5 -7 -3 -2
-1 0 -2 0 -1 -1 -1 -1 -2 -2 0 0 0 0 0 0 -48 -105 -60 -190 -215 -88 -52 -36 -60 -39 -38 -16 -4 -2 -2 -1 0 0 -1 -1 -4 -21 -51 -51 -34 -14 -8
0 0 0 0 0 0 0 0 0 -1 -1 0 0 0 0 0 0 0 -165 -93 -104 -153 -101 -19 -4 -3 -1 -2 -2 -3 -2 0 -3 -6 -9 -11 -10 -12 -11 -21 -30 -33 -28
0 0 0 0 0 0 0 0 0 0 -2 -1 -1 0 0 -1 0 -58 -173 -129 -97 -152 -312 -328 -241 -143 -167 -208 -266 -165 -30 -1 -2 -3 -23 -40 -52 -37 -50 -63 -76 -77 -74
0 0 0 0 0 0 0 0 0 0 -1 -2 -3 -3 -2 -2 -1 -210 -224 -50 -83 0 0 0 0 0 0 0 0 0 0 0 -48 -278 -60 -65 -113 -154 -129 -157 -158 -111 -47
0 0 0 0 0 0 0 0 0 0 0 0 0 -1 -2 0 0 0 0 0 0 0 0 0 0 0 0 0 0 0 0 0 0 0 0 -277 -230 -220 -253 -188 -147 -158 -139
0 0 0 0 0 0 0 0 0 0 0 0 0 0 0 0 0 0 0 0 0 0 0 0 0 0 0 0 0 0 0 0 0 0 0 0 0 0 0 0 0 0 0
Wind_Speed
28 27 25 29 28 26 23 28 30 30 28 28 25 28 27 26 26 25 24 21 25 25 26 26 28 27 27 26 25 25 25 25 25 24 23 22 24 24 24 26 24 17 13
30 29 28 28 29 31 26 23 29 30 31 31 23 29 30 29 28 27 26 25 25 26 25 26 28 29 29 29 28 28 28 26 28 28 27 27 26 26 27 27 28 29 29
24 28 30 27 28 34 30 27 27 30 32 33 29 27 30 31 30 28 28 27 27 27 26 24 25 26 29 30 28 28 25 24 26 30 30 29 28 29 29 29 28 26 16
22 24 28 29 28 31 31 27 28 30 32 34 33 31 29 32 33 32 29 28 27 27 27 28 26 19 19 20 26 26 28 29 29 29 31 30 26 25 25 30 30 29 29
28 28 26 30 30 31 32 29 27 29 33 35 34 34 35 35 35 34 33 30 28 27 27 25 25 26 3 13 21 16 26 22 27 29 29 28 27 26 28 32 32 30 28
27 31 33 31 31 31 32 35 34 30 31 33 35 33 37 40 39 32 37 35 33 31 30 24 24 15 23 20 16 19 29 27 30 33 32 31 31 28 26 30 32 33 32
27 29 29 33 33 32 34 34 36 39 38 35 35 31 29 32 40 21 12 32 38 32 18 17 15 16 11 17 17 20 21 19 17 26 36 33 36 29 25 24 25 32 33
27 27 26 27 30 32 33 35 37 37 38 38 37 37 35 31 25 17 16 15 18 30 18 15 10 10 8 7 9 11 9 10 7 9 15 16 10 10 7 8 19 25 18
27 29 29 29 27 28 35 37 37 37 38 37 37 37 34 34 28 21 21 20 19 20 17 16 14 13 12 12 11 10 10 9 10 10 15 18 15 17 12 25 8 8 7
31 31 31 32 33 31 37 39 39 38 39 38 37 37 36 36 29 25 22 24 24 19 19 19 20 23 17 16 15 14 14 14 17 10 9 13 18 16 18 11 9 9 10
33 34 34 34 34 34 36 38 38 38 38 38 38 38 37 35 34 28 24 26 25 25 24 22 19 20 24 23 20 18 17 24 20 15 13 12 12 11 12 10 10 11 10
36 35 34 35 34 35 40 39 38 39 40 39 39 38 37 34 33 32 27 25 30 35 38 33 29 26 20 21 22 23 21 22 18 16 15 14 16 16 15 13 12 12 12
41 40 38 36 35 34 36 38 38 38 38 38 37 38 37 34 32 30 30 28 28 31 38 40 41 37 33 25 21 22 21 20 19 19 18 17 18 18 20 19 18 17 17
47 45 43 41 39 36 35 34 35 36 37 34 38 39 40 35 33 30 25 28 30 31 31 38 41 40 39 36 29 24 23 22 21 20 20 20 22 21 18 17 17 16 16
50 49 47 45 43 41 39 38 37 35 40 37 38 37 39 41 37 35 33 27 24 26 28 29 30 29 30 30 27 26 22 22 23 22 23 22 21 21 20 19 19 18 18
53 51 49 47 45 44 43 44 41 40 40 44 46 46 45 43 42 37 34 34 33 27 25 27 24 23 25 28 27 26 24 23 22 21 21 21 21 21 21 20 19 18 19
52 53 52 50 50 48 47 47 47 43 40 42 43 45 46 48 49 47 41 38 33 27 28 26 25 23 24 28 28 27 25 21 20 19 18 18 19 19 20 20 20 19 20
49 52 53 54 51 51 50 50 49 48 45 43 39 40 40 43 45 46 45 39 38 29 29 26 26 28 27 28 29 27 26 24 21 19 18 17 17 18 18 18 18 19 19
48 49 50 52 53 53 53 52 53 52 51 48 44 41 39 40 40 39 34 36 34 32 28 28 28 25 30 31 30 32 32 29 26 23 19 18 17 16 16 16 17 17 17
46 48 50 53 55 55 54 55 54 54 54 52 50 46 42 37 37 36 34 34 35 31 32 31 28 27 28 35 34 34 34 31 28 26 27 25 24 24 21 20 20 19 19
44 43 47 51 54 55 57 57 57 55 54 56 55 49 46 43 42 40 37 34 35 33 30 30 30 30 30 31 33 35 36 37 36 33 32 30 29 26 25 25 26 25 24
45 44 43 48 51 55 57 57 57 57 56 56 57 52 49 46 45 45 44 39 37 36 34 33 29 29 32 32 31 36 38 38 36 32 32 32 28 27 26 27 26 26 25
43 43 39 42 49 53 56 58 59 58 58 57 56 54 51 48 47 46 45 42 37 32 31 29 32 36 38 37 37 38 40 39 39 36 34 33 30 28 26 27 27 27 26
40 40 40 37 41 48 52 55 56 58 59 58 56 56 54 52 51 48 42 39 36 35 33 31 32 32 32 31 33 40 41 40 41 40 37 34 33 31 29 27 27 26 26
37 38 40 41 38 43 49 53 56 57 57 58 58 56 53 50 47 44 41 39 35 33 32 30 30 30 28 29 29 30 33 33 35 36 34 33 32 29 26 26 23 24 23
33 33 33 35 37 39 42 48 53 54 56 57 58 57 55 53 51 48 44 40 35 32 30 28 27 26 25 25 24 23 24 24 24 25 25 25 25 25 24 21 20 21 21
Wind_Direction
253 256 258 251 253 258 264 256 248 243 246 245 247 226 203 203 199 200 221 243 222 232 229 230 220 229 220 230 238 243 242 242 235 246 264 272 271 269 276 289 283 266 317
253 254 255 256 254 251 261 265 256 250 242 238 264 242 219 209 206 203 203 218 220 224 238 238 231 226 229 235 239 244 246 259 248 251 259 262 273 278 280 282 299 316 325
261 257 256 259 259 250 258 262 260 255 249 240 249 256 242 223 205 197 200 205 213 220 240 256 256 256 242 237 253 255 270 281 278 255 261 271 282 279 291 285 318 338 6
267 265 261 262 262 259 257 261 261 257 254 248 250 251 254 238 228 214 202 205 208 208 210 232 261 283 284 281 269 271 271 272 276 278 275 284 304 312 315 303 313 324 331
269 266 267 263 264 262 260 261 263 261 257 253 256 254 249 243 230 217 219 209 205 208 207 201 202 205 284 297 286 297 281 293 286 285 289 296 304 312 309 307 311 323 334
276 269 266 264 263 262 261 259 260 264 263 262 258 260 253 238 236 257 232 229 221 216 214 200 200 183 200 195 195 203 277 286 282 277 284 292 299 308 315 314 313 315 320
279 277 273 265 264 264 263 262 260 258 259 262 262 265 266 263 252 267 229 214 237 217 198 198 195 196 194 197 201 207 211 212 214 272 277 289 289 307 317 321 322 312 312
290 279 283 273 268 267 267 265 264 263 262 261 262 262 263 266 266 251 243 238 219 216 209 209 224 226 243 226 218 209 214 215 240 243 226 231 257 294 279 307 326 321 328
294 288 282 281 278 276 268 266 269 267 264 264 264 264 265 265 265 255 259 262 234 228 240 242 236 240 253 260 248 244 239 241 287 246 228 229 233 233 238 253 275 254 265
293 291 289 283 283 283 272 270 269 268 264 264 265 265 266 266 267 262 255 265 268 256 253 248 240 228 256 258 254 260 256 277 294 273 281 241 234 237 235 253 282 255 247
292 290 289 288 285 267 269 269 271 268 265 263 265 266 266 268 268 266 258 262 266 270 270 268 253 237 231 236 251 252 250 288 291 282 272 277 284 288 298 290 272 259 270
289 289 290 287 282 277 270 277 274 270 265 264 264 266 269 270 270 269 265 258 268 270 271 275 277 277 258 245 244 239 243 275 274 260 261 273 290 294 296 293 290 288 289
283 282 284 285 284 281 282 278 277 274 271 268 267 267 268 272 272 269 268 266 264 267 272 272 273 277 280 276 257 246 253 264 253 254 258 269 284 290 298 299 302 301 299
277 278 279 278 279 280 281 282 279 276 273 274 269 267 266 270 271 273 272 270 268 269 271 273 273 274 276 279 280 276 269 267 269 269 272 278 287 289 286 287 291 294 294
274 274 274 274 274 274 275 276 277 277 268 277 273 271 266 265 268 270 272 272 274 273 272 276 276 275 277 277 277 276 276 276 270 272 278 280 282 284 284 287 289 292 292
271 270 270 271 271 270 271 273 274 274 276 270 267 266 266 266 266 270 272 271 273 280 278 277 273 272 273 276 277 276 275 274 276 279 278 279 280 281 284 286 286 285 288
271 269 267 268 267 267 268 267 269 272 275 271 272 269 266 263 262 264 269 271 275 274 272 276 278 272 274 276 277 278 278 278 280 278 280 282 283 283 283 284 286 286 287
273 270 267 265 264 264 265 264 265 266 268 270 273 271 272 268 267 266 266 270 272 271 271 274 276 279 277 277 276 278 280 281 279 278 279 282 285 287 286 284 285 285 285
274 271 268 265 262 261 262 263 262 262 262 264 270 272 273 273 273 273 273 269 268 266 269 270 273 276 279 277 278 277 278 281 282 282 280 276 278 282 281 281 283 281 283
277 274 270 266 262 260 259 259 260 259 259 261 262 266 269 274 273 274 275 271 267 266 269 271 272 274 274 276 278 277 279 281 281 281 283 285 282 281 283 288 289 290 288
278 278 273 268 262 259 256 256 257 258 258 257 258 262 267 271 271 273 272 275 271 270 271 271 272 274 276 277 276 276 277 279 281 283 284 287 286 283 282 285 289 292 294
280 278 277 271 265 259 256 255 255 256 257 257 256 261 264 268 267 266 264 268 271 271 273 275 274 275 276 275 279 278 277 278 280 283 284 285 285 285 283 284 287 289 292
281 278 280 276 268 260 256 254 254 254 255 256 256 257 259 262 261 260 264 267 271 275 278 279 277 273 278 281 278 280 279 280 282 283 284 284 286 286 284 284 285 286 287
284 280 279 281 275 263 257 254 253 253 253 254 255 255 256 258 259 260 264 268 271 275 278 280 279 280 282 285 286 277 280 283 284 284 283 285 286 286 283 283 283 282 284
290 285 280 277 280 272 262 258 255 253 253 253 253 254 256 257 259 261 263 267 270 273 275 280 281 284 288 288 290 290 291 293 289 285 287 289 290 288 287 287 286 291 291
301 297 293 287 282 278 273 264 258 255 254 253 253 254 255 256 257 259 261 263 266 269 272 278 280 285 290 295 297 299 300 302 302 298 297 296 294 294 293 291 290 293 295